FW0960 Weather Reports


time (UTC)temp
C
wind
direction
speed
KPH
gust
KPH
rain 1hr
cm
rain 24hr
cm
rain mn
cm
humidity
%
barometer
mb
20260901224532 31 130 0.0 0.0 0.00 0.00 0.00 73 1014.2
20260901224038 31 130 0.0 0.0 0.00 0.00 0.00 71 1014.2
20260901223610 31 130 0.0 1.6 0.00 0.00 0.00 70 1014.2
20260901222524 31 130 0.0 1.6 0.00 0.00 0.00 69 1014.5
20260901222025 31 130 0.0 1.6 0.00 0.00 0.00 69 1014.6
20260901221601 32 130 0.0 1.6 0.00 0.00 0.00 69 1014.8
20260901220524 32 129 0.0 3.2 0.00 0.00 0.00 68 1014.8
20260901220028 32 139 0.0 1.6 0.00 0.00 0.00 70 1014.7
20260901215522 32 137 0.0 1.6 0.00 0.00 0.00 69 1014.8
20260901215023 32 132 0.0 4.8 0.00 0.00 0.00 69 1014.8
20260901214519 32 132 0.0 4.8 0.00 0.00 0.00 68 1014.7
20260901214018 32 119 0.0 1.6 0.00 0.00 0.00 68 1014.7
20260901213519 32 120 1.6 1.6 0.00 0.00 0.00 67 1014.8
20260901213021 32 121 1.6 4.8 0.00 0.00 0.00 65 1014.8
20260901212017 32 147 1.6 3.2 0.00 0.00 0.00 66 1014.5
20260901210018 32 150 1.6 6.4 0.00 0.00 0.00 66 1014.6
20260901205016 32 149 1.6 3.2 0.00 0.00 0.00 67 1014.8
20260901204519 32 134 0.0 1.6 0.00 0.00 0.00 66 1014.8
20260901204014 32 140 0.0 3.2 0.00 0.00 0.00 67 1014.7
20260901203519 32 136 1.6 3.2 0.00 0.00 0.00 65 1014.9
20260901203110 32 119 1.6 3.2 0.00 0.00 0.00 65 1014.8
20260901202517 32 121 0.0 3.2 0.00 0.00 0.00 67 1014.9
20260901201508 32 159 1.6 6.4 0.00 0.00 0.00 72 1015.1
20260901201012 32 186 0.0 3.2 0.00 0.00 0.00 71 1015.1
20260901200504 31 184 0.0 3.2 0.00 0.00 0.00 75 1015.2
20260901200006 31 184 1.6 6.4 0.00 0.00 0.00 72 1015.3
20260901195614 31 172 0.0 6.4 0.00 0.00 0.00 73 1015.4
20260901194504 31 185 0.0 3.2 0.00 0.00 0.00 76 1015.4
20260901194002 31 185 0.0 3.2 0.00 0.00 0.00 75 1015.5
20260901193003 31 186 0.0 1.6 0.00 0.00 0.00 77 1015.5
20260901192503 31 186 0.0 1.6 0.00 0.00 0.00 76 1015.4
20260901192003 31 186 0.0 1.6 0.00 0.00 0.00 77 1015.4
20260901191502 31 175 0.0 1.6 0.00 0.00 0.00 77 1015.4
20260901191002 30 175 0.0 0.0 0.00 0.00 0.00 77 1015.4
20260901190516 30 175 0.0 0.0 0.00 0.00 0.00 78 1015.5
20260901190001 30 175 0.0 1.6 0.00 0.00 0.00 78 1015.4
20260901185505 31 175 0.0 4.8 0.00 0.00 0.00 76 1015.5
20260901185007 31 175 0.0 4.8 0.00 0.00 0.00 79 1015.5
20260901184505 31 176 0.0 3.2 0.00 0.00 0.00 76 1015.4
20260901184003 31 176 0.0 3.2 0.00 0.00 0.00 75 1015.3
20260901183034 31 168 0.0 3.2 0.00 0.00 0.00 76 1015.5
20260901181949 31 150 0.0 1.6 0.00 0.00 0.00 76 1015.7
20260901181443 31 150 0.0 1.6 0.00 0.00 0.00 77 1015.7
20260901180940 31 150 0.0 1.6 0.00 0.00 0.00 75 1015.7
20260901180432 31 150 0.0 3.2 0.00 0.00 0.00 75 1015.8
20260901175935 31 150 0.0 3.2 0.00 0.00 0.00 73 1015.8
20260901175432 31 159 0.0 3.2 0.00 0.00 0.00 75 1016.0
20260901174936 31 160 0.0 6.4 0.00 0.00 0.00 74 1016.0
20260901174433 31 161 1.6 6.4 0.00 0.00 0.00 72 1015.9
20260901173931 31 170 1.6 6.4 0.00 0.00 0.00 72 1015.9
20260901173431 31 191 1.6 8.0 0.00 0.00 0.00 73 1015.8
20260901172931 31 184 1.6 8.0 0.00 0.00 0.00 74 1015.9
20260901171432 31 137 1.6 3.2 0.00 0.00 0.00 76 1016.1
20260901170932 31 138 1.6 3.2 0.00 0.00 0.00 73 1016.1
20260901165934 31 135 1.6 8.0 0.00 0.00 0.00 74 1016.0
20260901164931 31 163 1.6 8.0 0.00 0.00 0.00 75 1015.9
20260901164434 31 157 1.6 8.0 0.00 0.00 0.00 74 1016.0
20260901162940 30 155 0.0 3.2 0.00 0.00 0.00 77 1016.4
20260901162434 30 153 1.6 4.8 0.00 0.00 0.00 75 1016.4
20260901161935 30 149 1.6 4.8 0.00 0.00 0.00 76 1016.4
20260901161432 30 135 1.6 3.2 0.00 0.00 0.00 75 1016.6
20260901160431 30 166 1.6 6.4 0.00 0.00 0.00 75 1016.6
20260901155933 30 166 0.0 4.8 0.00 0.00 0.00 75 1016.6
20260901154934 30 194 1.6 3.2 0.00 0.00 0.00 76 1016.6
20260901153434 30 183 0.0 3.2 0.00 0.00 0.00 77 1016.8
20260901152433 30 179 0.0 3.2 0.00 0.00 0.00 77 1016.9
20260901151431 30 179 0.0 9.7 0.00 0.00 0.00 77 1016.8
20260901150922 30 179 0.0 9.7 0.00 0.00 0.00 74 1016.7
20260901145919 30 144 0.0 3.2 0.00 0.00 0.00 77 1017.0
20260901145414 29 165 0.0 3.2 0.00 0.00 0.00 79 1017.0
20260901144416 29 164 1.6 6.4 0.00 0.00 0.00 79 1017.0
20260901143911 29 164 1.6 6.4 0.00 0.00 0.00 78 1017.1
20260901143417 28 159 1.6 8.0 0.00 0.00 0.00 80 1017.1
20260901142911 28 167 1.6 8.0 0.00 0.00 0.00 80 1017.2
20260901141914 28 169 0.0 1.6 0.00 0.00 0.00 83 1017.1
20260901141412 28 169 1.6 6.4 0.00 0.00 0.00 84 1017.0
20260901140906 28 167 1.6 8.0 0.00 0.00 0.00 84 1017.2
20260901140409 28 158 1.6 8.0 0.00 0.00 0.00 84 1017.4
20260901135910 28 159 1.6 8.0 0.00 0.00 0.00 84 1017.3
20260901135404 28 159 1.6 8.0 0.00 0.00 0.00 85 1017.4
20260901133901 27 163 1.6 8.0 0.00 0.00 0.00 87 1017.5
20260901133401 27 164 1.6 8.0 0.00 0.00 0.00 87 1017.5
20260901132354 27 165 0.0 8.0 0.00 0.00 0.00 88 1017.4
20260901131854 26 177 1.6 4.8 0.00 0.00 0.00 90 1017.4
20260901131356 26 177 1.6 9.7 0.00 0.00 0.00 90 1017.5
20260901130859 26 177 0.0 9.7 0.00 0.00 0.00 90 1017.3
20260901125857 26 268 0.0 3.2 0.00 0.00 0.00 93 1017.4
20260901124911 25 269 0.0 3.2 0.00 0.00 0.00 94 1017.3
20260901123849 25 269 0.0 4.8 0.00 0.00 0.00 94 1017.5
20260901123348 25 269 0.0 3.2 0.00 0.00 0.00 96 1017.5
20260901122852 25 269 0.0 3.2 0.00 0.00 0.00 96 1017.8
20260901122344 25 269 0.0 4.8 0.00 0.00 0.00 97 1017.9
20260901121343 24 269 0.0 3.2 0.00 0.00 0.00 99 1018.0
20260901120344 24 269 0.0 3.2 0.00 0.00 0.00 100 1017.8
20260901115844 24 269 0.0 3.2 0.00 0.00 0.00 100 1017.8
20260901115340 24 269 0.0 0.0 0.00 0.00 0.00 100 1017.8
20260901114841 23 269 0.0 0.0 0.00 0.00 0.00 100 1017.7
20260901114341 23 269 0.0 0.0 0.00 0.00 0.00 100 1017.8
20260901113843 23 269 0.0 0.0 0.00 0.00 0.00 100 1017.7
20260901113410 23 269 0.0 0.0 0.00 0.00 0.00 100 1017.8
20260901112344 23 269 0.0 0.0 0.00 0.00 0.00 100 1017.6
20260901111336 23 269 0.0 0.0 0.00 0.00 0.00 100 1017.3
20260901105342 23 269 0.0 0.0 0.00 0.00 0.00 99 1017.3
20260901104837 23 269 0.0 0.0 0.00 0.00 0.00 99 1017.2
20260901104341 23 269 0.0 0.0 0.00 0.00 0.00 99 1017.1
20260901103843 23 269 0.0 0.0 0.00 0.00 0.00 99 1017.2
20260901103334 23 269 0.0 0.0 0.00 0.00 0.00 99 1017.1
20260901102836 23 269 0.0 0.0 0.00 0.00 0.00 99 1017.2
20260901102331 23 269 0.0 0.0 0.00 0.00 0.00 99 1017.1
20260901101331 23 269 0.0 0.0 0.00 0.00 0.00 99 1017.2
20260901100339 23 269 0.0 0.0 0.00 0.00 0.00 99 1017.2
20260901095334 23 269 0.0 0.0 0.00 0.00 0.00 99 1017.1
20260901094838 23 269 0.0 0.0 0.00 0.00 0.00 99 1017.1
20260901094330 23 269 0.0 0.0 0.00 0.00 0.00 99 1017.1
20260901093834 23 269 0.0 0.0 0.00 0.00 0.00 99 1017.0
20260901092836 23 269 0.0 0.0 0.00 0.00 0.00 99 1017.1
20260901092330 23 269 0.0 0.0 0.00 0.00 0.00 99 1017.1
20260901091337 23 269 0.0 0.0 0.00 0.00 0.00 99 1017.0
20260901090833 23 269 0.0 0.0 0.00 0.00 0.00 99 1017.0
20260901090335 23 269 0.0 0.0 0.00 0.00 0.00 99 1017.2
20260901085833 23 269 0.0 0.0 0.00 0.00 0.00 99 1017.2
20260901085328 23 269 0.0 0.0 0.00 0.00 0.00 99 1017.2
20260901084838 23 269 0.0 0.0 0.00 0.00 0.00 99 1017.3
20260901084335 23 269 0.0 0.0 0.00 0.00 0.00 99 1017.4
20260901083828 23 269 0.0 0.0 0.00 0.00 0.00 99 1017.3
20260901082820 23 269 0.0 0.0 0.00 0.00 0.00 99 1017.3
20260901082322 23 269 0.0 0.0 0.00 0.00 0.00 99 1017.2
20260901081822 23 269 0.0 0.0 0.00 0.00 0.00 99 1017.2
20260901081320 23 269 0.0 0.0 0.00 0.00 0.00 99 1017.3
20260901080822 23 269 0.0 0.0 0.00 0.00 0.00 99 1017.4
20260901075815 23 269 0.0 0.0 0.00 0.00 0.00 99 1017.4
20260901075314 23 269 0.0 0.0 0.00 0.00 0.00 99 1017.4
20260901074813 23 269 0.0 0.0 0.00 0.00 0.00 99 1017.4
20260901074314 23 269 0.0 0.0 0.00 0.00 0.00 99 1017.4
20260901073311 23 269 0.0 0.0 0.00 0.00 0.00 99 1017.5
20260901072812 23 269 0.0 0.0 0.00 0.00 0.00 99 1017.5
20260901072311 23 269 0.0 0.0 0.00 0.00 0.00 98 1017.6
20260901071804 23 269 0.0 0.0 0.00 0.00 0.00 98 1017.6
20260901070802 23 269 0.0 0.0 0.00 0.00 0.00 98 1017.4
20260901070303 23 269 0.0 0.0 0.00 0.00 0.00 98 1017.4
20260901065805 23 269 0.0 0.0 0.00 0.00 0.00 98 1017.3
20260901064303 23 269 0.0 0.0 0.00 0.00 0.00 98 1017.5
20260901063304 23 269 0.0 0.0 0.00 0.00 0.00 97 1017.5
20260901062805 23 269 0.0 0.0 0.00 0.00 0.00 97 1017.7
20260901061808 23 269 0.0 0.0 0.00 0.00 0.00 97 1017.7
20260901061307 23 269 0.0 0.0 0.00 0.00 0.00 97 1017.7
20260901060803 23 269 0.0 0.0 0.00 0.00 0.00 97 1017.8
20260901060304 23 269 0.0 0.0 0.00 0.00 0.00 97 1018.0
20260901055804 23 269 0.0 0.0 0.00 0.00 0.00 97 1017.9
20260901055310 23 269 0.0 0.0 0.00 0.00 0.00 97 1018.1
20260901054803 23 269 0.0 0.0 0.00 0.00 0.00 97 1018.2
20260901053803 23 269 0.0 0.0 0.00 0.00 0.00 97 1018.3
20260901053304 23 269 0.0 0.0 0.00 0.00 0.00 97 1018.5
20260901052803 23 269 0.0 0.0 0.00 0.00 0.00 97 1018.6
20260901051255 24 269 0.0 0.0 0.00 0.00 0.00 96 1018.6
20260901050756 24 269 0.0 0.0 0.00 0.00 0.00 96 1018.7
20260901050253 24 269 0.0 0.0 0.00 0.00 0.00 97 1018.6
20260901045801 24 269 0.0 0.0 0.00 0.00 0.00 96 1018.7
20260901045252 24 269 0.0 0.0 0.00 0.00 0.00 96 1018.8
20260901044757 24 269 0.0 0.0 0.00 0.00 0.00 96 1018.7
20260901043748 24 269 0.0 0.0 0.00 0.00 0.00 96 1018.5
20260901043246 24 269 0.0 0.0 0.00 0.00 0.00 96 1018.6
20260901042747 24 269 0.0 0.0 0.00 0.00 0.00 96 1018.5
20260901042246 24 269 0.0 0.0 0.00 0.00 0.00 96 1018.5
20260901041746 24 269 0.0 0.0 0.00 0.00 0.00 96 1018.5
20260901041246 24 269 0.0 0.0 0.00 0.00 0.00 96 1018.3
20260901040244 24 269 0.0 0.0 0.00 0.00 0.00 96 1018.3
20260901035744 24 269 0.0 0.0 0.00 0.00 0.00 95 1018.4
20260901034738 24 269 0.0 0.0 0.00 0.00 0.00 95 1018.3
20260901034242 24 269 0.0 0.0 0.00 0.00 0.00 95 1018.3
20260901032235 24 269 0.0 0.0 0.00 0.00 0.00 95 1018.4
20260901031738 24 269 0.0 0.0 0.00 0.00 0.00 95 1018.2
20260901031237 24 269 0.0 0.0 0.00 0.00 0.00 95 1018.2
20260901030739 24 269 0.0 0.0 0.00 0.00 0.00 95 1018.3
20260901030236 24 269 0.0 0.0 0.00 0.00 0.00 95 1018.3
20260901025230 24 269 0.0 0.0 0.00 0.00 0.00 95 1018.4
20260901024732 24 269 0.0 0.0 0.00 0.00 0.00 94 1018.3
20260901024233 24 269 0.0 0.0 0.00 0.00 0.00 94 1018.4
20260901023733 24 269 0.0 0.0 0.00 0.00 0.00 94 1018.4
20260901022733 24 269 0.0 0.0 0.00 0.00 0.00 94 1018.6
20260901022236 24 269 0.0 0.0 0.00 0.00 0.00 94 1018.7
20260901021233 24 269 0.0 0.0 0.00 0.00 0.00 94 1018.7
20260901020733 24 269 0.0 0.0 0.00 0.00 0.00 94 1018.9
20260901020232 24 269 0.0 0.0 0.00 0.00 0.00 94 1018.9
20260901015731 24 269 0.0 0.0 0.00 0.00 0.00 94 1018.9
20260901014732 24 269 0.0 0.0 0.00 0.00 0.00 94 1019.0
20260901014231 24 269 0.0 0.0 0.00 0.00 0.00 94 1018.9
20260901013729 24 269 0.0 0.0 0.00 0.00 0.00 94 1019.0
20260901013230 24 269 0.0 0.0 0.00 0.00 0.00 94 1019.0
20260901012729 24 269 0.0 0.0 0.00 0.00 0.00 95 1019.0
20260901012228 24 269 0.0 0.0 0.00 0.00 0.00 95 1018.9
20260901011220 24 269 0.0 0.0 0.00 0.00 0.00 95 1018.9
20260901010724 24 269 0.0 0.0 0.00 0.00 0.00 95 1018.9
20260901010218 24 269 0.0 0.0 0.00 0.00 0.00 95 1018.8
20260901005216 24 269 0.0 0.0 0.00 0.00 0.00 94 1018.8
20260901004710 24 269 0.0 1.6 0.00 0.00 0.00 94 1018.8
20260901004209 24 269 0.0 1.6 0.00 0.00 0.00 94 1018.8
20260901003709 24 269 0.0 1.6 0.00 0.00 0.00 94 1018.7
20260901003208 24 269 0.0 1.6 0.00 0.00 0.00 94 1018.6
20260901002706 24 269 0.0 0.0 0.00 0.00 0.00 94 1018.5
20260901002204 24 269 0.0 0.0 0.00 0.00 0.00 94 1018.4
20260901001707 24 269 0.0 0.0 0.00 0.00 0.00 94 1018.5
20260901001221 24 269 0.0 0.0 0.00 0.00 0.00 93 1018.6
20260901000205 24 269 0.0 0.0 0.00 0.00 0.00 93 1018.6
20260831235701 24 269 0.0 0.0 0.00 0.00 0.00 93 1018.6
20260831235203 24 269 0.0 1.6 0.00 0.00 0.00 93 1018.6
20260831234708 24 269 0.0 1.6 0.00 0.00 0.00 93 1018.7
20260831234158 24 269 0.0 0.0 0.00 0.00 0.00 93 1018.7
20260831233654 24 269 0.0 0.0 0.00 0.00 0.00 93 1018.7
20260831233152 24 269 0.0 0.0 0.00 0.00 0.00 92 1018.8
20260831232654 24 269 0.0 0.0 0.00 0.00 0.00 92 1018.7
20260831232154 24 269 0.0 0.0 0.00 0.00 0.00 92 1018.9
20260831231646 24 269 0.0 0.0 0.00 0.00 0.00 92 1018.9
20260831231148 25 269 0.0 0.0 0.00 0.00 0.00 92 1019.0
20260831230147 25 269 0.0 0.0 0.00 0.00 0.00 92 1019.0